Hourly Data Report for February 18, 2012

HALIFAX STANFIELD INT'L A
NOVA SCOTIA

44°52'48.060" N
63°30'00.050" W
145.40 m
8202250
71395
YHZ

Download Data

Hourly Data (February 2012)
Hourly Data Report for February 18, 2012
TIME
LST
Temp Definition
°C
Dew Point Definition
°C
Rel Hum Definition
%
Precip. Amount Definition
mm

Wind Dir Definition
10's deg

Wind Spd Definition
km/h
Visibility Definition
km
Stn Press Definition
kPa
Hmdx Definition


Wind Chill Definition


Weather Definition


00:00 0.6 0.5 99   16 13 0.8 99.07     Rain, Fog
01:00 1.1 1.0 99   14 13 0.6 98.96     Rain, Fog
02:00 1.3 1.3 100   14 9 0.8 98.87     Rain, Fog
03:00 0.6 0.5 99   17 9 4.8 98.77     Snow
04:00 0.2 0.1 99   15 9 1.6 98.67     Snow
05:00 0.2 0.0 99   11 6 2.4 98.54     Snow
06:00 -0.2 -0.4 99   32 9 0.8 98.51   -3 Moderate Snow
07:00 -0.1 -0.1 100   32 17 0.8 98.45   -5 Moderate Snow
08:00 -0.1 -0.3 99   34 19 1.2 98.50   -5 Snow
09:00 -0.3 -0.4 99   31 19 0.8 98.49   -5 Moderate Snow
10:00 -0.5 -0.7 99   32 19 2.4 98.46   -6 Snow, Fog
11:00 -0.2 -0.5 98   31 15 2.4 98.44   -5 Snow, Fog
12:00 0.1 -0.5 96   30 24 19.3 98.40     Cloudy
13:00 0.4 -0.9 91   30 26 24.1 98.33     Mostly Cloudy
14:00 0.9 -1.2 86   30 32 24.1 98.26     Mostly Cloudy
15:00 0.8 -1.1 87   29 32 24.1 98.30     Mostly Cloudy
16:00 0.6 -1.9 83   28 26 24.1 98.36     Mostly Cloudy
17:00 0.0 -2.3 84   29 24 24.1 98.43   -6 Mostly Cloudy
18:00 -0.7 -2.8 86   28 17 24.1 98.47   -6 Mainly Clear
19:00 -0.7 -2.7 86   27 17 24.1 98.52   -6 Mainly Clear
20:00 -1.0 -3.0 86   28 17 24.1 98.52   -6 Clear
21:00 -0.7 -2.9 85   28 22 24.1 98.58   -6 Mostly Cloudy
22:00 -0.6 -3.0 84   28 20 24.1 98.66   -6 Snow Showers
23:00 -0.6 -3.3 82   28 26 24.1 98.69   -7 Snow Showers

Notes on Data Quality.

Legend

  • E = Estimated
  • M = Missing
  • NA = Not Available*
  • [empty] = Indicates an unobserved value
Date modified: